| time (UTC) | temp C | wind direction | speed KPH | gust KPH | rain 1hr cm | rain 24hr cm | rain mn cm | humidity % | barometer mb |
| 20260505005119 | 10 | 211 | 25.7 | 33.8 | 0.00 | 0.00 | 0.00 | 95 | 1013.8 |
| 20260505004619 | 10 | 207 | 25.7 | 33.8 | 0.00 | 0.00 | 0.00 | 95 | 1013.8 |
| 20260505004118 | 10 | 202 | 22.5 | 33.8 | 0.00 | 0.00 | 0.00 | 95 | 1013.8 |
| 20260505003619 | 10 | 202 | 20.9 | 33.8 | 0.00 | 0.00 | 0.00 | 95 | 1013.8 |
| 20260505003118 | 10 | 184 | 20.9 | 33.8 | 0.00 | 0.00 | 0.00 | 94 | 1013.8 |
| 20260505002623 | 10 | 200 | 20.9 | 32.2 | 0.00 | 0.00 | 0.00 | 94 | 1013.8 |
| 20260505002619 | 11 | 188 | 20.9 | 32.2 | 0.00 | 0.00 | 0.00 | 94 | 1013.8 |
| 20260505001618 | 11 | 173 | 22.5 | 32.2 | 0.00 | 0.00 | 0.00 | 94 | 1013.8 |
| 20260505001118 | 11 | 204 | 22.5 | 32.2 | 0.00 | 0.00 | 0.00 | 94 | 1013.8 |
| 20260505000618 | 11 | 197 | 22.5 | 29.0 | 0.00 | 0.00 | 0.00 | 93 | 1013.8 |
| 20260505000118 | 11 | 196 | 20.9 | 29.0 | 0.00 | 0.00 | 0.00 | 94 | 1013.8 |
| 20260504235619 | 11 | 180 | 20.9 | 29.0 | 0.00 | 0.00 | 0.00 | 94 | 1013.7 |
| 20260504235119 | 11 | 213 | 20.9 | 35.4 | 0.00 | 0.00 | 0.00 | 95 | 1013.7 |
| 20260504234618 | 11 | 203 | 22.5 | 35.4 | 0.00 | 0.00 | 0.00 | 94 | 1013.7 |
| 20260504234116 | 11 | 198 | 25.7 | 35.4 | 0.00 | 0.00 | 0.00 | 94 | 1013.7 |
| 20260504233616 | 11 | 201 | 25.7 | 35.4 | 0.00 | 0.00 | 0.00 | 94 | 1013.6 |
| 20260504233116 | 11 | 187 | 25.7 | 35.4 | 0.00 | 0.00 | 0.00 | 94 | 1013.6 |
| 20260504232616 | 11 | 196 | 24.1 | 35.4 | 0.00 | 0.00 | 0.00 | 94 | 1013.7 |
| 20260504232116 | 11 | 209 | 24.1 | 35.4 | 0.00 | 0.00 | 0.00 | 95 | 1013.7 |
| 20260504231616 | 10 | 188 | 22.5 | 35.4 | 0.00 | 0.00 | 0.00 | 95 | 1013.7 |
| 20260504231116 | 10 | 192 | 22.5 | 33.8 | 0.00 | 0.00 | 0.00 | 95 | 1013.8 |
| 20260504230616 | 10 | 195 | 22.5 | 33.8 | 0.00 | 0.00 | 0.00 | 94 | 1013.9 |
| 20260504230116 | 10 | 207 | 24.1 | 35.4 | 0.00 | 0.00 | 0.00 | 94 | 1013.9 |
| 20260504225616 | 10 | 196 | 29.0 | 41.8 | 0.00 | 0.00 | 0.00 | 94 | 1014.0 |
| 20260504225115 | 11 | 190 | 29.0 | 43.5 | 0.00 | 0.00 | 0.00 | 93 | 1013.9 |
| 20260504224616 | 11 | 184 | 27.4 | 45.1 | 0.00 | 0.00 | 0.00 | 92 | 1013.9 |
| 20260504224116 | 11 | 228 | 27.4 | 45.1 | 0.00 | 0.00 | 0.00 | 90 | 1014.0 |
| 20260504223616 | 11 | 194 | 29.0 | 43.5 | 0.00 | 0.00 | 0.00 | 90 | 1014.1 |
| 20260504223117 | 11 | 178 | 29.0 | 40.2 | 0.00 | 0.00 | 0.00 | 89 | 1014.1 |
| 20260504222614 | 11 | 200 | 29.0 | 46.7 | 0.00 | 0.00 | 0.00 | 91 | 1014.1 |
| 20260504222114 | 11 | 180 | 30.6 | 46.7 | 0.00 | 0.00 | 0.00 | 91 | 1014.1 |
| 20260504221616 | 11 | 198 | 27.4 | 46.7 | 0.00 | 0.00 | 0.00 | 89 | 1014.3 |
| 20260504221612 | 11 | 182 | 29.0 | 46.7 | 0.00 | 0.00 | 0.00 | 90 | 1014.0 |
| 20260504220611 | 11 | 198 | 27.4 | 46.7 | 0.00 | 0.00 | 0.00 | 91 | 1014.4 |
| 20260504220111 | 11 | 192 | 30.6 | 49.9 | 0.00 | 0.00 | 0.00 | 91 | 1014.5 |
| 20260504215612 | 11 | 192 | 33.8 | 59.5 | 0.00 | 0.00 | 0.00 | 90 | 1014.5 |
| 20260504215111 | 11 | 201 | 33.8 | 59.5 | 0.00 | 0.00 | 0.00 | 90 | 1014.4 |
| 20260504214612 | 11 | 161 | 33.8 | 49.9 | 0.00 | 0.00 | 0.00 | 90 | 1014.5 |
| 20260504214112 | 11 | 188 | 33.8 | 53.1 | 0.00 | 0.00 | 0.00 | 88 | 1014.5 |
| 20260504213615 | 12 | 165 | 33.8 | 49.9 | 0.00 | 0.00 | 0.00 | 87 | 1014.6 |
| 20260504213611 | 11 | 171 | 32.2 | 53.1 | 0.00 | 0.00 | 0.00 | 87 | 1014.5 |
| 20260504212611 | 11 | 177 | 33.8 | 51.5 | 0.00 | 0.00 | 0.00 | 88 | 1014.5 |
| 20260504212218 | 11 | 180 | 35.4 | 49.9 | 0.00 | 0.00 | 0.00 | 84 | 1014.5 |
| 20260504212111 | 11 | 171 | 33.8 | 51.5 | 0.00 | 0.00 | 0.00 | 87 | 1014.5 |
| 20260504211615 | 11 | 189 | 35.4 | 53.1 | 0.00 | 0.00 | 0.00 | 83 | 1014.6 |
| 20260504211611 | 11 | 182 | 35.4 | 53.1 | 0.00 | 0.00 | 0.00 | 85 | 1014.4 |
| 20260504210114 | 11 | 175 | 37.0 | 54.7 | 0.00 | 0.00 | 0.00 | 83 | 1014.5 |
| 20260504210108 | 11 | 172 | 35.4 | 49.9 | 0.00 | 0.00 | 0.00 | 83 | 1014.5 |
| 20260504205108 | 11 | 175 | 35.4 | 56.3 | 0.00 | 0.00 | 0.00 | 82 | 1014.5 |
| 20260504204608 | 11 | 178 | 33.8 | 56.3 | 0.00 | 0.00 | 0.00 | 82 | 1014.5 |
| 20260504204108 | 12 | 161 | 33.8 | 51.5 | 0.00 | 0.00 | 0.00 | 82 | 1014.4 |
| 20260504203716 | 11 | 198 | 33.8 | 51.5 | 0.00 | 0.00 | 0.00 | 82 | 1014.5 |
| 20260504203613 | 11 | 188 | 33.8 | 48.3 | 0.00 | 0.00 | 0.00 | 83 | 1014.4 |
| 20260504203608 | 11 | 182 | 35.4 | 51.5 | 0.00 | 0.00 | 0.00 | 82 | 1014.6 |
| 20260504202106 | 11 | 173 | 35.4 | 51.5 | 0.00 | 0.00 | 0.00 | 81 | 1014.4 |
| 20260504201606 | 12 | 177 | 33.8 | 49.9 | 0.00 | 0.00 | 0.00 | 79 | 1014.4 |
| 20260504201106 | 12 | 183 | 30.6 | 49.9 | 0.00 | 0.00 | 0.00 | 79 | 1014.4 |
| 20260504200612 | 12 | 161 | 27.4 | 45.1 | 0.00 | 0.00 | 0.00 | 78 | 1014.4 |
| 20260504200606 | 12 | 176 | 30.6 | 45.1 | 0.00 | 0.00 | 0.00 | 77 | 1014.5 |
| 20260504195605 | 12 | 184 | 25.7 | 38.6 | 0.00 | 0.00 | 0.00 | 79 | 1014.6 |
| 20260504195106 | 12 | 162 | 25.7 | 40.2 | 0.00 | 0.00 | 0.00 | 77 | 1014.6 |
| 20260504194603 | 12 | 190 | 24.1 | 40.2 | 0.00 | 0.00 | 0.00 | 76 | 1014.6 |
| 20260504194103 | 12 | 192 | 25.7 | 37.0 | 0.00 | 0.00 | 0.00 | 78 | 1014.6 |
| 20260504193602 | 12 | 181 | 25.7 | 38.6 | 0.00 | 0.00 | 0.00 | 80 | 1014.8 |
| 20260504193101 | 12 | 175 | 24.1 | 38.6 | 0.00 | 0.00 | 0.00 | 80 | 1014.8 |
| 20260504192602 | 11 | 203 | 24.1 | 37.0 | 0.00 | 0.00 | 0.00 | 79 | 1014.6 |
| 20260504192101 | 12 | 149 | 24.1 | 37.0 | 0.00 | 0.00 | 0.00 | 80 | 1014.8 |
| 20260504191602 | 12 | 165 | 22.5 | 37.0 | 0.00 | 0.00 | 0.00 | 81 | 1014.9 |
| 20260504191102 | 12 | 194 | 19.3 | 37.0 | 0.00 | 0.00 | 0.00 | 79 | 1014.8 |
| 20260504190601 | 12 | 188 | 16.1 | 30.6 | 0.00 | 0.00 | 0.00 | 82 | 1015.0 |
| 20260504185601 | 12 | 207 | 16.1 | 25.7 | 0.00 | 0.00 | 0.00 | 81 | 1014.9 |
| 20260504185102 | 12 | 176 | 14.5 | 25.7 | 0.00 | 0.00 | 0.00 | 84 | 1014.9 |
| 20260504184601 | 12 | 183 | 16.1 | 25.7 | 0.00 | 0.00 | 0.00 | 83 | 1014.9 |
| 20260504184102 | 12 | 191 | 17.7 | 25.7 | 0.00 | 0.00 | 0.00 | 84 | 1014.9 |
| 20260504183602 | 12 | 176 | 16.1 | 25.7 | 0.00 | 0.00 | 0.00 | 83 | 1014.9 |
| 20260504183101 | 12 | 188 | 16.1 | 25.7 | 0.00 | 0.00 | 0.00 | 82 | 1014.8 |
| 20260504182601 | 12 | 190 | 14.5 | 25.7 | 0.00 | 0.00 | 0.00 | 81 | 1014.9 |
| 20260504182102 | 12 | 169 | 12.9 | 24.1 | 0.00 | 0.00 | 0.00 | 83 | 1014.9 |
| 20260504181606 | 12 | 203 | 11.3 | 19.3 | 0.00 | 0.00 | 0.00 | 85 | 1014.9 |
| 20260504181602 | 12 | 195 | 11.3 | 22.5 | 0.00 | 0.00 | 0.00 | 83 | 1015.0 |
| 20260504180601 | 11 | 183 | 11.3 | 19.3 | 0.00 | 0.00 | 0.00 | 85 | 1015.0 |
| 20260504175602 | 11 | 207 | 14.5 | 20.9 | 0.00 | 0.00 | 0.00 | 86 | 1014.9 |
| 20260504175102 | 11 | 190 | 14.5 | 22.5 | 0.00 | 0.00 | 0.00 | 87 | 1014.9 |
| 20260504174602 | 11 | 190 | 14.5 | 24.1 | 0.00 | 0.00 | 0.00 | 87 | 1014.9 |
| 20260504174105 | 11 | 180 | 16.1 | 25.7 | 0.00 | 0.00 | 0.00 | 88 | 1014.8 |
| 20260504174101 | 11 | 175 | 14.5 | 24.1 | 0.00 | 0.00 | 0.00 | 86 | 1014.8 |
| 20260504173106 | 11 | 175 | 14.5 | 22.5 | 0.00 | 0.00 | 0.00 | 86 | 1014.8 |
| 20260504173101 | 11 | 202 | 16.1 | 25.7 | 0.00 | 0.00 | 0.00 | 87 | 1014.8 |
| 20260504172105 | 12 | 186 | 9.7 | 20.9 | 0.00 | 0.00 | 0.00 | 85 | 1014.8 |
| 20260504172101 | 11 | 173 | 12.9 | 20.9 | 0.00 | 0.00 | 0.00 | 85 | 1014.5 |
| 20260504171708 | 12 | 205 | 6.4 | 19.3 | 0.00 | 0.00 | 0.00 | 85 | 1014.6 |
| 20260504170601 | 11 | 180 | 8.0 | 17.7 | 0.00 | 0.00 | 0.00 | 84 | 1014.5 |
| 20260504151057 | 10 | 136 | 0.0 | 0.0 | 0.00 | 0.00 | 0.00 | 89 | 1014.1 |
| 20260504150558 | 10 | 136 | 0.0 | 0.0 | 0.00 | 0.00 | 0.00 | 89 | 1014.0 |
| 20260504141058 | 9 | 136 | 1.6 | 4.8 | 0.00 | 0.00 | 0.00 | 89 | 1013.9 |
| 20260504141054 | 9 | 128 | 1.6 | 4.8 | 0.00 | 0.00 | 0.00 | 90 | 1013.7 |
| 20260504130552 | 9 | 206 | 0.0 | 3.2 | 0.00 | 0.00 | 0.00 | 89 | 1013.4 |
| 20260504110542 | 10 | 270 | 0.0 | 3.2 | 0.00 | 0.00 | 0.00 | 88 | 1013.4 |
| 20260504110538 | 10 | 270 | 0.0 | 3.2 | 0.00 | 0.00 | 0.00 | 88 | 1013.4 |
| 20260504100534 | 10 | 196 | 1.6 | 4.8 | 0.00 | 0.00 | 0.00 | 84 | 1013.0 |
| 20260504081031 | 10 | 220 | 12.9 | 19.3 | 0.00 | 0.00 | 0.00 | 80 | 1014.3 |
| 20260504080531 | 10 | 229 | 14.5 | 20.9 | 0.00 | 0.00 | 0.00 | 79 | 1014.3 |
| 20260504050527 | 10 | 195 | 0.0 | 3.2 | 0.00 | 0.00 | 0.00 | 91 | 1013.9 |
| 20260504045527 | 10 | 195 | 1.6 | 4.8 | 0.00 | 0.00 | 0.00 | 91 | 1014.0 |
| 20260504045027 | 10 | 195 | 1.6 | 4.8 | 0.00 | 0.00 | 0.00 | 90 | 1014.0 |
| 20260504044528 | 10 | 195 | 0.0 | 4.8 | 0.00 | 0.00 | 0.00 | 90 | 1014.0 |
| 20260504044027 | 10 | 195 | 0.0 | 4.8 | 0.00 | 0.00 | 0.00 | 90 | 1013.8 |
| 20260504043527 | 10 | 195 | 1.6 | 6.4 | 0.00 | 0.00 | 0.00 | 90 | 1013.7 |
| 20260504043029 | 10 | 195 | 3.2 | 9.7 | 0.00 | 0.00 | 0.00 | 90 | 1013.7 |
| 20260504043025 | 10 | 195 | 4.8 | 9.7 | 0.00 | 0.00 | 0.00 | 90 | 1013.8 |
| 20260504042632 | 10 | 195 | 6.4 | 9.7 | 0.00 | 0.00 | 0.00 | 90 | 1013.8 |
| 20260504041522 | 10 | 195 | 6.4 | 9.7 | 0.00 | 0.00 | 0.00 | 90 | 1013.8 |
| 20260504041020 | 10 | 195 | 6.4 | 12.9 | 0.00 | 0.00 | 0.00 | 90 | 1013.6 |
| 20260504040521 | 10 | 198 | 8.0 | 12.9 | 0.00 | 0.00 | 0.00 | 90 | 1013.6 |
| 20260504040021 | 10 | 192 | 9.7 | 14.5 | 0.00 | 0.00 | 0.00 | 89 | 1013.4 |
| 20260504035521 | 10 | 207 | 9.7 | 14.5 | 0.00 | 0.00 | 0.00 | 89 | 1013.4 |
| 20260504035022 | 10 | 212 | 8.0 | 12.9 | 0.00 | 0.00 | 0.00 | 87 | 1013.4 |
| 20260504034521 | 10 | 209 | 6.4 | 11.3 | 0.00 | 0.00 | 0.00 | 87 | 1013.4 |
| 20260504034020 | 10 | 253 | 4.8 | 11.3 | 0.00 | 0.00 | 0.00 | 86 | 1013.2 |
| 20260504033523 | 10 | 269 | 4.8 | 12.9 | 0.00 | 0.00 | 0.00 | 85 | 1013.4 |
| 20260504033519 | 10 | 252 | 4.8 | 11.3 | 0.00 | 0.00 | 0.00 | 86 | 1013.2 |
| 20260504033126 | 11 | 272 | 4.8 | 12.9 | 0.00 | 0.00 | 0.00 | 85 | 1013.0 |
| 20260504032019 | 11 | 260 | 4.8 | 11.3 | 0.00 | 0.00 | 0.00 | 85 | 1013.0 |
| 20260504031519 | 11 | 267 | 6.4 | 12.9 | 0.00 | 0.00 | 0.00 | 85 | 1012.9 |
| 20260504031019 | 11 | 281 | 9.7 | 14.5 | 0.00 | 0.00 | 0.00 | 85 | 1012.9 |
| 20260504030519 | 11 | 311 | 8.0 | 14.5 | 0.00 | 0.00 | 0.00 | 84 | 1012.7 |
| 20260504030019 | 11 | 291 | 8.0 | 12.9 | 0.00 | 0.00 | 0.00 | 84 | 1012.8 |
| 20260504025519 | 11 | 294 | 4.8 | 12.9 | 0.00 | 0.00 | 0.00 | 84 | 1012.8 |
| 20260504025018 | 11 | 280 | 4.8 | 11.3 | 0.00 | 0.00 | 0.00 | 84 | 1012.8 |
| 20260504024517 | 11 | 221 | 6.4 | 11.3 | 0.00 | 0.00 | 0.00 | 83 | 1012.8 |
| 20260504024016 | 11 | 214 | 6.4 | 11.3 | 0.00 | 0.00 | 0.00 | 82 | 1012.8 |
| 20260504023517 | 11 | 219 | 6.4 | 11.3 | 0.00 | 0.00 | 0.00 | 83 | 1012.6 |
| 20260504023017 | 11 | 235 | 6.4 | 11.3 | 0.00 | 0.00 | 0.00 | 82 | 1012.6 |
| 20260504022521 | 11 | 232 | 4.8 | 11.3 | 0.00 | 0.00 | 0.00 | 81 | 1012.6 |
| 20260504022517 | 11 | 227 | 4.8 | 11.3 | 0.00 | 0.00 | 0.00 | 81 | 1012.6 |
| 20260504021517 | 11 | 243 | 6.4 | 11.3 | 0.00 | 0.00 | 0.00 | 82 | 1012.6 |
| 20260504021017 | 11 | 244 | 6.4 | 11.3 | 0.00 | 0.00 | 0.00 | 83 | 1012.5 |
| 20260504020521 | 11 | 205 | 6.4 | 8.0 | 0.00 | 0.00 | 0.00 | 84 | 1012.6 |
| 20260504020517 | 11 | 241 | 6.4 | 9.7 | 0.00 | 0.00 | 0.00 | 83 | 1012.5 |
| 20260504015520 | 11 | 207 | 9.7 | 14.5 | 0.00 | 0.00 | 0.00 | 85 | 1012.4 |
| 20260504015515 | 11 | 205 | 6.4 | 9.7 | 0.00 | 0.00 | 0.00 | 85 | 1012.6 |
| 20260504015015 | 11 | 205 | 8.0 | 14.5 | 0.00 | 0.00 | 0.00 | 85 | 1012.7 |
| 20260504014014 | 11 | 240 | 9.7 | 12.9 | 0.00 | 0.00 | 0.00 | 86 | 1012.4 |
| 20260504013515 | 11 | 218 | 11.3 | 14.5 | 0.00 | 0.00 | 0.00 | 86 | 1012.3 |
| 20260504013013 | 11 | 204 | 12.9 | 19.3 | 0.00 | 0.00 | 0.00 | 85 | 1012.3 |
| 20260504012513 | 11 | 196 | 14.5 | 19.3 | 0.00 | 0.00 | 0.00 | 85 | 1012.4 |
| 20260504012013 | 11 | 186 | 12.9 | 24.1 | 0.00 | 0.00 | 0.00 | 84 | 1012.5 |
| 20260504011512 | 11 | 184 | 12.9 | 24.1 | 0.00 | 0.00 | 0.00 | 85 | 1012.4 |
| 20260504011012 | 11 | 227 | 16.1 | 24.1 | 0.00 | 0.00 | 0.00 | 86 | 1012.2 |
| 20260504010510 | 11 | 207 | 17.7 | 24.1 | 0.00 | 0.00 | 0.00 | 86 | 1012.3 |
| 20260504010011 | 11 | 189 | 17.7 | 22.5 | 0.00 | 0.00 | 0.00 | 85 | 1012.4 |